Location: Newark
(44.2886°N, 4.8431°E)
Time: 15:41:32
(UTC+00:00)

ZACube-1 - Pass Details

Date: 30 November 2020
Orbit: 584 x 665 km, 97.6° (Epoch: 14 January)

Event Time Altitude Azimuth Distance (km) Brightness Sun altitude
Rises 05:15:17 0° 9° (N) 2,825 ? -17.4°
Reaches altitude 10° 05:17:27 10° 7° (N) 1,924 ? -17.0°
Maximum altitude 05:21:34 65° 286° (WNW) 657 ? -16.3°
Drops below altitude 10° 05:25:44 10° 204° (SSW) 1,940 ? -15.6°
Sets 05:27:55 0° 202° (SSW) 2,850 ? -15.2°
